Regional Weather Roundup
Issued by NWS

Home | Current Version | Previous Version | Text Only | Print | Product List | Glossary On
Versions: 1 2 3 4 5 6 7 8 9 10 11 12 13 14 15 16 17 18 19 20 21 22 23 24 25 26 27 28 29 30 31 32 33 34 35 36 37 38 39 40 41 42 43 44 45 46 47 48 49 50
000
ASUS45 KREV 040510
RWRNV
NEVADA REGIONAL WEATHER ROUNDUP
NATIONAL WEATHER SERVICE RENO NV
900 PM PST TUE MAR 03 2015

NOTE: "FAIR" INDICATES FEW OR NO CLOUDS BELOW 12,000 FEET WITH NO
SIGNIFICANT WEATHER AND/OR OBSTRUCTIONS TO VISIBILITY.

NVZ001-003-004-040600-
WESTERN NEVADA

CITY           SKY/WX    TMP DP  RH WIND       PRES   REMARKS
RENO           CLEAR     34  18  52 S5        30.08R
CARSON CITY    FAIR      36  18  48 SW3       30.07R
MINDEN         FAIR      30  19  64 N3        30.08
SLIDE MTN        N/A     19   0  42 CALM        N/A
PYRAMID LAKE     N/A     37 N/A N/A SW9         N/A
FALLON         CLEAR     31  16  54 SE5       30.07R
LOVELOCK       CLEAR     31  15  52 NW6       30.08R
HAWTHORNE      CLEAR     34  21  60 CALM      30.08R
$$

NVZ002-CAZ072-073-040600-
NORTHERN AND CENTRAL SIERRA

CITY           SKY/WX    TMP DP  RH WIND       PRES   REMARKS
S. LAKE TAHOE  CLEAR     29  19  66 N3        30.02R
TRUCKEE        CLEAR     23  21  93 CALM      30.05R
SQUAW VLY 8000   N/A     23  19  86 E6          N/A
BLUE CANYON    CLEAR     36  16  44 E5        30.01R
MAMMOTH LAKES  FAIR      27  14  59 W10       30.03R
BRIDGEPORT     FAIR      23  10  57 VRB3      30.02R
$$

NVZ030-031-036-040600-
NORTHERN NEVADA

CITY           SKY/WX    TMP DP  RH WIND       PRES   REMARKS
ELKO           CLEAR     22  15  75 CALM      30.05R
WINNEMUCCA     CLEAR     21  13  71 CALM      30.08R
WENDOVER       CLEAR     28  16  59 W7        30.01S
$$

NVZ035-037-040600-
CENTRAL NEVADA

CITY           SKY/WX    TMP DP  RH WIND       PRES   REMARKS
ELY            PTCLDY    17  10  74 W7        30.01R
EUREKA           N/A     12   6  77 S7        30.04R
$$

NVZ013-014-040600-
SOUTH CENTRAL NEVADA

CITY           SKY/WX    TMP DP  RH WIND       PRES   REMARKS
TONOPAH        CLEAR     31  15  52 N10       30.03R
$$

NVZ017-020-022-040600-
SOUTHERN NEVADA

CITY           SKY/WX    TMP DP  RH WIND       PRES   REMARKS
LAS VEGAS      CLOUDY    51  36  56 E5        29.91R
N. LAS VEGAS   PTCLDY    49  36  61 SE6       29.94R
NELLIS AFB     MOCLDY    51  38  62 NE14      29.95R
HENDERSON      CLOUDY    49  38  65 NE5       29.96R
MERCURY        CLEAR     43  21  41 NE20G31   29.95R
$$



USA.gov is the U.S. government's official web portal to all federal, state and local government web resources and services.